Location: La Comballaz
(46.3780°N, 7.0817°E)
Time: 19:25:55
(UTC+00:00)

AO-7 - Pass Details

Date: 11 December 2022
Orbit: 1440 x 1458 km, 101.9° (Epoch: 07 February)

Event Time Altitude Azimuth Distance (km) Brightness Sun altitude
Rises 04:27:28 0° 18° (NNE) 4,547 ? -26.1°
Reaches altitude 10° 04:30:15 10° 20° (NNE) 3,567 ? -25.6°
Maximum altitude 04:38:36 83° 108° (ESE) 1,461 ? -24.2°
Drops below altitude 10° 04:46:57 10° 198° (SSW) 3,561 ? -22.8°
Sets 04:49:43 0° 199° (SSW) 4,538 ? -22.3°
